TimeAEST,TemperatureF,Dew PointF,Humidity,Sea Level PressureIn,VisibilityMPH,Wind Direction,Wind SpeedMPH,Gust SpeedMPH,PrecipitationIn,Events,Conditions,WindDirDegrees,DateUTC
12:00 AM,76,69,73,29.93,,SE,15.0,,,,Overcast,140,2012-10-21 14:00:00
12:00 AM,75.2,69.8,83,29.92,6.2,SE,15.0,-,N/A,,Mostly Cloudy,140,2012-10-21 14:00:00
12:30 AM,75.2,68.0,78,29.92,6.2,SSE,10.4,-,N/A,,Mostly Cloudy,160,2012-10-21 14:30:00
1:00 AM,75,69,76,29.92,,South,8.1,,,,,170,2012-10-21 15:00:00
1:00 AM,75.2,69.8,83,29.89,6.2,South,8.1,-,N/A,,Mostly Cloudy,170,2012-10-21 15:00:00
1:30 AM,75.2,68.0,78,29.89,6.2,South,8.1,-,N/A,,Mostly Cloudy,170,2012-10-21 15:30:00
2:00 AM,75.2,68.0,78,29.89,6.2,SSE,8.1,-,N/A,,Mostly Cloudy,160,2012-10-21 16:00:00
2:30 AM,75.2,68.0,78,29.86,6.2,SSE,9.2,-,N/A,,Mostly Cloudy,150,2012-10-21 16:30:00
3:00 AM,74,68,77,29.87,,SSE,9.2,,,,Overcast,150,2012-10-21 17:00:00
3:00 AM,75.2,68.0,78,29.86,6.2,SSE,9.2,-,N/A,,Mostly Cloudy,150,2012-10-21 17:00:00
3:30 AM,75.2,68.0,78,29.86,6.2,South,9.2,-,N/A,,Mostly Cloudy,170,2012-10-21 17:30:00
4:00 AM,74,68,77,29.87,,South,11.5,,,,,170,2012-10-21 18:00:00
4:00 AM,75.2,68.0,78,29.86,6.2,South,11.5,-,N/A,,Scattered Clouds,170,2012-10-21 18:00:00
4:30 AM,73.4,68.0,83,29.86,6.2,South,11.5,-,N/A,,Scattered Clouds,170,2012-10-21 18:30:00
5:00 AM,75.2,68.0,78,29.86,6.2,SSE,8.1,-,N/A,,Mostly Cloudy,150,2012-10-21 19:00:00
5:30 AM,75.2,68.0,78,29.89,6.2,SSE,9.2,-,N/A,,Mostly Cloudy,160,2012-10-21 19:30:00
6:00 AM,75,69,76,29.90,19,South,11.5,,,Rain,Light Rain Showers,170,2012-10-21 20:00:00
6:00 AM,75.2,69.8,83,29.89,6.2,South,11.5,-,N/A,Rain,Light Rain Showers,170,2012-10-21 20:00:00
6:30 AM,75.2,69.8,83,29.92,6.2,South,9.2,-,N/A,,Mostly Cloudy,170,2012-10-21 20:30:00
7:00 AM,76,69,74,29.93,,South,9.2,,,,,170,2012-10-21 21:00:00
7:00 AM,75.2,69.8,83,29.92,6.2,South,9.2,-,N/A,,Mostly Cloudy,170,2012-10-21 21:00:00
7:30 AM,77.0,69.8,78,29.92,6.2,South,10.4,-,N/A,,Mostly Cloudy,180,2012-10-21 21:30:00
8:00 AM,78.8,69.8,74,29.95,6.2,SSE,9.2,-,N/A,,Mostly Cloudy,160,2012-10-21 22:00:00
8:30 AM,78.8,69.8,74,29.95,6.2,SSE,10.4,-,N/A,,Mostly Cloudy,150,2012-10-21 22:30:00
9:00 AM,81,70,62,29.94,19,SSE,10.4,,,,Partly Cloudy,160,2012-10-21 23:00:00
9:00 AM,80.6,69.8,70,29.95,6.2,SSE,10.4,-,N/A,,Mostly Cloudy,160,2012-10-21 23:00:00
9:30 AM,82.4,69.8,66,29.92,6.2,SSE,11.5,-,N/A,,Mostly Cloudy,160,2012-10-21 23:30:00
10:00 AM,84,69,51,29.94,,SE,12.7,,,,,140,2012-10-22 00:00:00
10:00 AM,84.2,68.0,58,29.92,6.2,SE,12.7,-,N/A,,Mostly Cloudy,140,2012-10-22 00:00:00
10:30 AM,86.0,69.8,58,29.92,6.2,SE,15.0,-,N/A,,Mostly Cloudy,140,2012-10-22 00:30:00
11:00 AM,86.0,66.2,51,29.89,6.2,SE,15.0,-,N/A,,Mostly Cloudy,130,2012-10-22 01:00:00
11:30 AM,86.0,66.2,51,29.89,6.2,SE,15.0,-,N/A,,Scattered Clouds,130,2012-10-22 01:30:00
12:00 PM,87,67,42,29.88,19,ESE,12.7,,,,Partly Cloudy,110,2012-10-22 02:00:00
12:00 PM,87.8,68.0,52,29.89,6.2,ESE,12.7,-,N/A,,Partly Cloudy,110,2012-10-22 02:00:00
12:30 PM,86.0,66.2,51,29.86,6.2,ESE,15.0,-,N/A,,Partly Cloudy,120,2012-10-22 02:30:00
1:00 PM,88,67,39,29.87,,ENE,11.5,,,,,70,2012-10-22 03:00:00
1:00 PM,87.8,66.2,49,29.86,6.2,ENE,11.5,-,N/A,,Partly Cloudy,70,2012-10-22 03:00:00
1:30 PM,86.0,66.2,51,29.86,6.2,East,15.0,-,N/A,,Scattered Clouds,80,2012-10-22 03:30:00
2:00 PM,86.0,66.2,51,29.83,6.2,East,12.7,-,N/A,,Mostly Cloudy,90,2012-10-22 04:00:00
2:30 PM,86.0,66.2,51,29.83,6.2,SE,13.8,-,N/A,,Mostly Cloudy,130,2012-10-22 04:30:00
3:00 PM,86.0,66.2,51,29.83,6.2,SE,13.8,-,N/A,,Mostly Cloudy,140,2012-10-22 05:00:00
3:30 PM,84.2,66.2,55,29.83,6.2,SSE,20.7,-,N/A,,Mostly Cloudy,150,2012-10-22 05:30:00
4:00 PM,84,65,44,29.84,,SE,20.7,,,,,140,2012-10-22 06:00:00
4:00 PM,84.2,66.2,55,29.83,6.2,SE,20.7,-,N/A,,Mostly Cloudy,140,2012-10-22 06:00:00
4:30 PM,82.4,66.2,58,29.83,6.2,SE,18.4,-,N/A,,Mostly Cloudy,130,2012-10-22 06:30:00
5:00 PM,82.4,68.0,62,29.83,6.2,SE,16.1,-,N/A,,Mostly Cloudy,130,2012-10-22 07:00:00
5:30 PM,80.6,68.0,65,29.86,6.2,ESE,13.8,-,N/A,,Mostly Cloudy,120,2012-10-22 07:30:00
6:00 PM,78.8,68.0,69,29.86,6.2,SE,11.5,-,N/A,,Mostly Cloudy,130,2012-10-22 08:00:00
6:30 PM,77.0,68.0,74,29.89,6.2,SE,12.7,-,N/A,,Mostly Cloudy,140,2012-10-22 08:30:00
7:00 PM,77,68,66,29.91,,SSE,11.5,,,,,150,2012-10-22 09:00:00
7:00 PM,77.0,68.0,74,29.89,6.2,SSE,11.5,-,N/A,,Mostly Cloudy,150,2012-10-22 09:00:00
7:30 PM,77.0,68.0,74,29.89,6.2,SSE,11.5,-,N/A,,Mostly Cloudy,160,2012-10-22 09:30:00
8:00 PM,77.0,68.0,74,29.92,6.2,South,6.9,-,N/A,,Mostly Cloudy,170,2012-10-22 10:00:00
8:30 PM,75.2,68.0,78,29.92,6.2,South,5.8,-,N/A,,Mostly Cloudy,170,2012-10-22 10:30:00
9:00 PM,75,67,71,29.93,,South,5.8,,,,,180,2012-10-22 11:00:00
9:00 PM,75.2,68.0,78,29.92,6.2,South,5.8,-,N/A,,Mostly Cloudy,180,2012-10-22 11:00:00
9:30 PM,75.2,68.0,78,29.92,6.2,South,5.8,-,N/A,,Mostly Cloudy,190,2012-10-22 11:30:00
10:00 PM,74,67,74,29.93,,South,5.8,,,,,180,2012-10-22 12:00:00
10:00 PM,73.4,68.0,83,29.92,6.2,South,5.8,-,N/A,,Mostly Cloudy,180,2012-10-22 12:00:00
11:00 PM,73.4,68.0,83,29.92,6.2,South,5.8,-,N/A,,Mostly Cloudy,170,2012-10-22 13:00:00
11:30 PM,73.4,68.0,83,29.92,6.2,SSE,4.6,-,N/A,,Mostly Cloudy,160,2012-10-22 13:30:00